EHI
14 18 21 24 25 26 26 26 28 29 29 29 30 32 32 32 27 22 21 23 23 22 22 23 22 19 15 12 11 11 10 10 10 9 6 3 1 3 5 5 5 7 7
15 17 20 21 21 22 23 23 25 29 30 30 31 31 30 28 24 21 21 20 19 17 16 17 18 17 14 12 11 12 12 10 9 8 6 2 0 1 3 5 5 5 4
14 15 16 15 14 16 18 18 20 25 28 28 28 28 27 25 22 20 19 18 15 13 11 11 13 14 13 12 11 10 9 8 6 6 4 3 1 1 2 3 3 2 1
14 13 12 10 9 10 13 14 16 19 21 22 23 25 25 23 21 19 17 16 14 11 10 10 11 11 12 12 11 8 5 3 3 3 4 4 3 1 1 1 1 1 0
19 15 11 9 7 8 9 11 13 14 15 17 20 21 21 21 20 17 15 14 13 11 10 10 10 10 10 10 8 6 3 1 1 2 3 3 2 0 0 0 0 0 0
24 17 11 9 8 8 8 9 10 11 12 13 15 16 17 18 18 16 14 13 13 12 10 10 10 9 9 7 5 3 1 0 0 1 1 1 0 0 0 0 0 0 0
25 18 12 10 9 8 8 7 8 9 10 11 11 12 12 13 14 14 13 12 12 11 10 9 9 8 7 4 2 1 0 0 0 0 0 0 0 0 0 0 0 0 0
23 17 12 10 9 8 7 6 7 8 8 8 8 8 8 8 9 11 11 11 9 9 8 8 7 7 6 3 1 0 0 0 0 0 0 0 0 0 0 0 0 0 0
19 15 10 9 8 7 6 5 5 5 5 5 5 5 5 5 6 9 10 9 8 7 7 6 6 6 5 2 1 1 1 1 1 1 0 0 0 0 0 0 0 0 0
17 14 9 6 6 5 4 4 4 3 3 3 3 3 3 4 5 7 8 8 7 6 6 5 5 5 4 3 2 2 2 2 2 1 0 0 0 0 0 0 0 0 0
16 14 9 5 4 4 3 3 3 3 3 3 3 3 3 3 3 4 5 4 4 4 4 4 4 4 3 3 3 3 3 2 1 1 0 0 0 0 0 0 0 0 0
14 12 9 6 4 3 3 3 3 3 3 3 3 3 3 2 1 1 1 1 2 2 2 3 3 3 3 2 3 3 3 2 1 0 0 0 0 0 0 0 0 0 0
13 11 8 6 5 3 2 2 3 3 3 3 3 2 1 1 0 0 0 0 1 1 1 1 2 2 1 1 1 2 2 1 1 0 0 0 0 0 0 0 0 0 0
11 9 7 6 4 2 1 1 1 3 3 3 2 1 0 0 0 0 0 0 0 0 0 0 1 1 0 0 0 1 1 0 0 0 0 0 0 0 0 0 0 0 0
7 6 5 5 3 1 0 0 1 2 2 2 1 0 0 0 0 0 0 0 0 0 0 0 0 0 0 0 0 0 0 0 0 0 0 0 0 0 0 0 0 0 0
3 3 4 5 3 1 0 0 0 1 1 1 0 0 0 0 0 0 0 0 0 0 0 0 0 0 0 0 0 0 0 0 0 0 0 0 0 0 0 0 0 0 0
3 2 3 4 2 0 0 0 0 0 0 0 0 0 0 0 0 0 0 0 0 0 0 0 0 0 0 0 0 0 0 0 0 0 0 0 0 0 0 0 0 0 0
3 3 3 3 1 0 0 0 0 0 0 0 0 0 0 0 0 0 0 0 0 0 0 0 0 0 0 0 0 0 0 0 0 0 0 0 0 0 0 0 0 0 0
3 3 3 2 1 0 0 0 0 0 0 0 0 0 0 0 0 0 0 0 0 0 0 0 0 0 0 0 0 0 0 0 0 0 0 0 0 0 0 0 0 0 0
2 2 2 1 0 0 0 0 0 0 0 0 0 0 0 0 0 0 0 0 0 0 0 0 0 0 0 0 0 0 0 0 0 0 0 0 0 0 0 0 0 0 0
1 1 1 0 0 0 0 0 0 0 0 0 0 0 0 0 0 0 1 1 1 0 0 0 0 0 0 0 0 0 0 0 0 0 0 0 0 0 0 0 0 0 0
0 0 0 0 0 0 0 0 0 0 0 0 0 0 0 0 0 1 1 2 1 0 0 0 0 0 0 0 0 0 0 0 0 0 0 0 0 0 0 0 0 0 0
0 0 0 0 0 0 0 0 0 0 0 0 0 0 0 0 1 1 1 1 1 0 0 0 0 0 0 0 0 0 0 0 0 0 0 0 0 0 0 0 0 0 0
0 0 0 0 0 0 0 0 0 0 0 0 0 0 0 0 1 1 1 0 0 0 0 0 0 0 0 0 0 0 0 0 0 0 0 0 0 0 0 0 0 0 0
0 0 0 0 0 0 0 0 0 0 0 0 0 0 0 0 0 0 0 0 0 0 0 0 0 0 0 0 0 0 0 0 0 0 0 0 0 0 0 0 0 0 0
0 0 0 0 0 0 0 0 0 0 0 0 0 0 0 0 0 0 0 0 0 0 0 0 0 0 0 0 0 0 0 0 0 0 0 0 0 0 0 0 0 0 0
Wind_Speed
10 9 9 9 8 8 7 7 6 5 3 2 2 1 1 2 2 2 3 3 4 4 3 3 2 2 1 1 2 1 2 2 1 1 0 1 1 1 1 1 1 2 2
11 9 8 8 8 8 7 7 6 6 5 3 2 1 1 1 2 2 2 3 4 4 3 3 3 3 2 1 2 1 1 2 1 1 1 1 0 2 2 1 1 1 2
12 10 9 8 8 8 7 6 6 6 5 4 3 2 1 1 2 2 2 3 4 3 3 4 3 3 2 2 2 1 2 1 1 1 1 1 1 1 1 2 2 2 1
12 10 9 8 8 8 7 7 6 6 5 5 4 4 3 3 3 2 2 3 3 3 3 3 3 3 3 3 3 2 2 1 1 1 0 0 2 2 1 1 1 2 2
11 11 10 9 8 8 8 6 6 6 5 5 6 5 4 3 2 2 3 2 2 3 3 3 3 3 2 3 4 3 2 1 1 1 0 0 1 1 2 2 1 2 2
12 11 10 9 8 8 7 6 6 6 6 6 6 5 5 4 4 3 3 3 2 3 5 4 4 3 3 3 3 3 3 2 1 1 1 1 1 1 1 2 2 2 1
13 12 11 9 8 8 7 7 7 6 6 6 5 5 4 4 4 4 3 3 3 3 5 5 4 3 3 3 2 2 2 2 1 1 1 1 1 1 1 3 2 1 1
12 11 10 9 8 8 7 7 7 6 6 5 5 5 5 3 4 4 4 4 3 3 4 4 4 4 4 4 3 2 2 2 1 1 1 0 1 1 2 2 3 2 1
13 12 11 9 9 8 7 7 7 6 5 5 4 4 4 4 4 4 4 4 4 4 5 4 4 4 4 4 3 2 2 2 2 1 2 2 1 1 1 2 3 3 3
13 12 11 9 9 8 7 7 6 5 4 4 4 4 5 4 4 5 5 5 5 4 4 4 4 4 4 4 4 3 3 2 2 2 2 2 2 1 1 2 1 1 2
13 12 10 9 9 8 7 6 5 4 4 4 5 5 4 4 5 5 5 5 4 5 4 4 4 4 4 4 4 3 3 3 3 3 3 3 2 2 1 1 1 1 2
13 12 10 9 8 7 6 5 4 4 4 5 5 5 5 5 5 5 5 5 4 4 4 4 4 4 4 4 4 4 5 4 4 3 4 3 3 3 1 1 2 1 2
12 11 10 8 8 7 6 5 4 4 4 5 5 5 5 5 5 5 5 5 5 5 5 5 5 5 5 5 5 5 4 4 4 4 4 4 4 3 2 2 2 2 3
10 10 9 8 7 6 6 5 4 4 4 5 5 5 4 4 4 4 4 4 4 4 5 5 5 5 6 7 7 6 5 5 5 5 5 4 5 4 3 3 3 3 3
10 10 9 7 7 6 5 5 5 4 4 4 4 4 3 3 4 3 3 4 4 5 5 6 6 6 7 8 7 6 6 5 5 5 5 5 7 7 4 4 3 3 3
10 9 9 8 7 6 6 5 5 4 3 4 4 4 4 4 4 3 4 5 5 5 5 6 7 8 8 10 12 8 5 5 5 5 4 5 6 7 7 6 6 4 3
9 9 8 8 7 6 6 5 5 4 4 4 4 4 4 4 4 4 5 5 5 5 5 6 6 7 9 12 13 12 6 5 5 4 4 5 7 7 5 4 4 4 4
9 9 9 8 7 6 6 5 4 4 4 4 4 3 3 4 4 5 5 5 4 4 4 5 6 6 9 12 12 11 6 4 5 5 6 6 6 7 5 3 4 5 4
9 9 9 8 7 6 6 5 4 4 4 4 4 4 4 4 5 5 5 4 3 3 4 4 5 5 7 10 11 10 4 4 6 7 8 7 6 9 9 5 5 5 4
10 9 8 8 7 6 5 5 4 5 5 4 5 5 4 5 5 5 4 3 2 3 4 5 5 5 5 8 10 10 4 4 3 4 6 10 8 9 9 5 5 5 4
11 10 9 8 6 6 5 5 5 5 5 4 5 4 4 4 4 3 2 2 2 2 3 3 3 3 4 5 8 9 5 4 4 3 4 5 8 9 8 5 3 3 1
11 10 8 7 6 6 6 6 5 5 4 4 4 4 3 2 4 2 2 2 1 1 2 2 2 2 3 4 5 6 6 5 4 4 4 3 5 6 6 4 4 4 3
10 9 9 8 6 5 5 6 5 5 5 4 4 3 3 2 2 2 2 1 1 1 0 1 1 2 2 2 3 4 5 6 3 3 3 2 3 4 3 2 4 3 2
9 8 9 8 7 6 6 6 6 5 5 4 4 3 2 2 2 1 1 2 2 2 1 1 1 2 3 3 2 2 2 2 2 2 3 3 3 3 3 2 2 1 1
8 8 8 8 9 8 7 6 6 5 4 4 3 3 3 3 3 4 4 4 4 3 3 4 4 3 3 3 4 3 4 4 4 5 3 2 1 2 2 1 1 1 1
8 7 8 8 9 8 7 6 6 5 4 3 3 2 3 3 3 4 4 5 3 3 4 3 2 3 3 2 3 5 5 6 7 4 3 2 1 1 1 0 0 0 0
Wind_Direction
114 102 97 95 90 83 77 68 60 47 41 43 41 48 55 56 63 58 38 21 7 359 346 337 325 308 283 279 280 262 271 260 202 156 80 20 39 50 40 69 89 96 111
121 115 108 100 92 83 76 71 61 47 37 34 26 44 47 58 73 58 49 29 15 2 357 358 344 328 310 289 276 263 270 264 233 180 146 172 46 43 20 57 93 98 83
136 133 126 114 102 90 78 72 61 50 39 28 30 31 68 53 49 45 47 30 17 12 1 348 341 331 327 315 300 282 257 254 258 218 163 170 176 85 30 43 61 74 84
137 133 124 113 106 101 90 78 68 56 44 32 33 25 40 43 32 29 33 31 23 15 10 353 343 340 347 339 322 333 296 245 234 279 273 193 140 154 142 55 51 64 65
137 129 121 113 106 99 94 85 75 62 52 41 37 36 38 33 32 26 20 12 23 20 12 6 353 345 354 353 343 330 319 263 239 237 252 23 48 105 155 161 123 70 47
135 127 122 116 110 101 94 90 81 69 59 53 46 43 38 30 26 18 14 8 18 18 14 11 4 358 5 1 351 343 348 329 299 268 201 182 164 169 154 154 159 134 92
137 136 132 124 112 100 91 84 80 70 59 53 47 39 34 27 28 22 18 12 16 17 12 9 4 3 2 349 343 356 349 339 331 299 243 208 189 159 149 145 152 144 138
140 137 129 121 112 101 92 84 76 69 60 52 46 40 28 28 27 22 15 25 23 15 8 5 6 7 1 355 354 353 350 352 353 354 16 47 66 105 131 141 147 144 137
142 136 128 123 115 105 95 88 79 68 57 48 48 50 37 35 30 24 27 30 22 20 18 11 9 7 5 355 356 14 12 10 21 32 52 62 72 97 103 128 161 156 160
141 134 130 125 116 111 102 93 85 73 59 49 38 46 42 39 36 39 39 35 28 23 17 16 12 12 11 8 7 15 19 29 37 45 59 62 56 75 106 138 170 170 158
139 134 130 126 120 116 112 104 97 83 70 64 51 42 41 40 42 46 40 31 25 17 18 18 19 22 24 18 13 12 25 39 39 39 56 65 64 66 75 102 103 86 107
135 135 132 129 123 116 108 98 94 84 78 72 61 50 46 44 41 40 36 28 24 20 18 17 21 27 28 26 22 20 31 37 39 42 55 56 57 65 70 72 81 93 111
133 131 131 129 124 116 106 98 86 77 74 74 70 60 49 46 42 37 30 25 23 24 22 22 26 27 30 29 26 31 34 40 44 45 53 52 53 51 52 63 68 73 86
132 131 131 127 122 118 113 104 90 78 73 74 71 64 53 50 48 40 31 25 25 29 26 30 29 32 38 31 25 26 28 42 46 46 49 51 52 47 46 62 63 78 91
136 134 133 130 127 124 116 105 89 75 73 78 73 72 62 58 55 46 36 31 29 37 35 39 40 39 45 29 20 20 31 42 49 53 55 61 70 62 54 62 56 68 91
138 134 134 132 129 125 119 106 95 89 90 84 80 76 69 59 54 49 45 43 38 35 39 45 48 46 39 22 22 23 23 31 45 52 56 68 75 73 68 71 72 73 84
134 133 132 129 126 123 117 115 110 103 91 85 81 76 71 59 52 55 54 49 45 47 47 50 57 59 40 25 21 18 19 34 39 40 44 50 54 48 50 70 89 79 78
133 130 129 128 126 123 122 122 120 115 102 94 87 77 75 69 59 56 53 51 47 46 50 56 59 62 46 28 20 11 20 39 40 45 50 60 52 32 19 51 74 76 64
125 121 123 125 125 123 124 123 121 112 104 97 88 77 71 68 65 64 58 49 48 49 57 62 63 62 53 30 20 12 17 46 48 50 48 52 55 28 26 41 60 70 69
116 117 120 122 124 125 127 125 115 107 101 96 88 80 71 71 68 67 67 56 49 49 60 65 62 61 55 35 23 12 19 40 58 67 72 57 44 28 30 38 45 51 38
120 124 126 128 130 132 130 123 112 106 103 98 94 88 82 89 86 78 72 63 59 67 69 78 74 67 59 53 31 24 25 14 28 59 63 50 33 28 23 28 46 60 2
126 130 130 128 131 134 130 122 115 114 111 104 99 97 90 87 95 93 85 75 68 88 80 92 96 92 81 54 35 23 21 9 18 41 56 51 22 12 4 11 20 6 349
132 134 133 130 127 127 128 126 123 121 118 113 109 104 95 82 97 111 113 102 68 39 44 84 91 103 99 79 26 12 8 12 18 26 23 359 334 330 324 327 330 335 323
137 141 141 137 133 132 129 130 133 130 126 123 122 124 120 122 91 48 54 59 38 28 24 42 72 85 82 57 17 360 23 7 13 350 319 287 295 300 313 321 294 270 325
143 147 146 139 139 141 138 137 133 136 138 137 148 146 138 124 95 71 42 52 56 40 26 18 24 38 61 38 17 10 10 6 8 333 302 269 241 239 244 248 230 214 211
146 148 145 142 143 143 141 142 146 153 153 155 168 167 158 146 143 135 110 61 82 91 75 67 62 72 89 93 18 8 356 348 348 338 297 295 292 291 288 280 299 131 337